This is the latest recevied weather packets stored in our database for station/object W4MLN-3. If no packets are shown the sender has not sent any weather packets the latest 10 day(s).
| Time | Temp. | Humidity | Pressure | Rain* | Wind** | Luminosity | Snow |
|---|---|---|---|---|---|---|---|
| 1777579524 | 16.11° C | 44% | 1011 hPa | 0 mm | - | - | - |
| 1777579203 | 15.56° C | 45% | 1011.1 hPa | 0 mm | - | - | - |
| 1777578924 | 16.11° C | 41% | 1011.2 hPa | 0 mm | - | - | - |
| 1777578603 | 15.56° C | 45% | 1011 hPa | 0 mm | - | - | - |
| 1777578303 | 15.56° C | 44% | 1011.3 hPa | 0 mm | - | - | - |
| 1777578003 | 15.56° C | 46% | 1011.4 hPa | 0 mm | - | - | - |
| 1777577703 | 15.56° C | 45% | 1011.6 hPa | 0 mm | - | - | - |
| 1777577404 | 15.56° C | 44% | 1011.5 hPa | 0 mm | - | - | - |
| 1777577103 | 15.56° C | 47% | 1011.5 hPa | 0 mm | - | - | - |
| 1777576804 | 15.56° C | 45% | 1011.4 hPa | 0 mm | - | - | - |
| 1777576503 | 15.56° C | 43% | 1011.3 hPa | 0 mm | - | - | - |
| 1777576203 | 16.11° C | 44% | 1011.3 hPa | 0 mm | - | - | - |
| 1777575903 | 15.56° C | 44% | 1011.3 hPa | 0 mm | - | - | - |
| 1777575603 | 15.56° C | 48% | 1011.3 hPa | 0 mm | - | - | - |
| 1777575346 | 15.56° C | 47% | 1011.2 hPa | 0 mm | - | - | - |
| 1777575003 | 15.56° C | 49% | 1011.3 hPa | 0 mm | - | - | - |
| 1777574703 | 15.56° C | 48% | 1011.3 hPa | 0 mm | - | - | - |
| 1777574403 | 15.56° C | 45% | 1011.4 hPa | 0 mm | - | - | - |
| 1777574124 | 16.11° C | 50% | 1011.3 hPa | 0 mm | - | - | - |
| 1777573804 | 15.56° C | 49% | 1011.2 hPa | 0 mm | - | - | - |
| 1777573503 | 16.11° C | 50% | 1011.2 hPa | 0 mm | - | - | - |
| 1777573203 | 16.11° C | 46% | 1011.1 hPa | 0 mm | - | - | - |
| 1777572903 | 16.11° C | 47% | 1011.3 hPa | 0 mm | - | - | - |
| 1777572604 | 16.11° C | 51% | 1011.2 hPa | 0 mm | - | - | - |
| 1777572324 | 16.11° C | 51% | 1011.2 hPa | 0 mm | - | - | - |
* Rain latest hour (hover to see other rain measurements)
** Current wind speed in m/s (hover to see current wind gust speed)